timestamp,wind_dir_avg,wind_spd_avg,wind_spd_max_dir,wind_spd_gust,battery_voltage,lat,long
2023-03-24 00:04:00+00:00,261.0,4.08,260.0,4.31,12.41,47.59359,-54.27349
2023-03-24 00:14:00+00:00,250.0,3.6,240.0,4.03,12.33,47.59359,-54.27349
2023-03-24 00:24:00+00:00,222.0,2.68,235.0,3.85,12.33,47.59359,-54.27349
2023-03-24 00:34:00+00:00,263.0,3.76,261.0,4.09,12.33,47.59359,-54.27349
2023-03-24 00:44:00+00:00,228.0,4.05,230.0,4.6,12.33,47.59359,-54.27349
2023-03-24 00:54:00+00:00,236.0,3.42,240.0,3.68,12.33,47.59359,-54.27349
2023-03-24 01:04:00+00:00,254.0,2.95,256.0,3.14,12.33,47.59359,-54.27349
2023-03-24 01:14:00+00:00,237.0,2.12,235.0,2.44,12.25,47.59359,-54.27349
2023-03-24 01:24:00+00:00,241.0,2.9,242.0,3.51,12.25,47.59359,-54.27349
2023-03-24 01:34:00+00:00,230.0,3.0,230.0,3.34,12.25,47.59359,-54.27349
2023-03-24 01:44:00+00:00,246.0,2.16,242.0,2.47,12.25,47.59359,-54.27349
2023-03-24 01:54:00+00:00,242.0,1.66,235.0,1.96,12.25,47.59359,-54.27349
2023-03-24 02:04:00+00:00,234.0,1.68,233.0,2.02,12.25,47.59359,-54.27349
2023-03-24 02:14:01+00:00,188.0,1.67,186.0,1.84,12.25,47.59359,-54.27349
2023-03-24 02:24:01+00:00,179.0,1.27,183.0,1.59,12.25,47.59359,-54.27349
2023-03-24 02:34:01+00:00,237.0,1.04,236.0,1.41,12.25,47.59359,-54.27349
2023-03-24 02:44:01+00:00,225.0,1.16,226.0,1.37,12.25,47.59359,-54.27349
2023-03-24 02:54:01+00:00,221.0,1.41,221.0,1.72,12.25,47.59359,-54.27349
2023-03-24 03:04:01+00:00,213.0,1.71,215.0,2.13,12.25,47.59359,-54.27349
2023-03-24 03:14:01+00:00,185.0,2.63,198.0,2.97,12.17,47.59359,-54.27349
2023-03-24 03:24:01+00:00,185.0,2.86,187.0,3.23,12.17,47.59359,-54.27349
2023-03-24 03:34:01+00:00,185.0,2.98,181.0,3.34,12.17,47.59359,-54.27349
2023-03-24 03:44:01+00:00,185.0,2.44,185.0,2.83,12.17,47.59359,-54.27349
2023-03-24 03:54:01+00:00,194.0,2.2,197.0,2.93,12.17,47.59359,-54.27349
2023-03-24 04:04:01+00:00,150.0,2.6,140.0,3.2,12.17,47.59359,-54.27349
2023-03-24 04:14:00+00:00,150.0,2.51,145.0,2.9,12.17,47.59359,-54.27349
2023-03-24 04:24:00+00:00,132.0,3.24,132.0,3.56,12.17,47.59359,-54.27349
2023-03-24 04:34:00+00:00,122.0,3.1,124.0,3.67,12.17,47.59359,-54.27349
2023-03-24 04:44:00+00:00,115.0,2.9,114.0,3.26,12.17,47.59359,-54.27349
2023-03-24 04:54:00+00:00,118.0,2.56,122.0,2.99,12.17,47.59359,-54.27349
2023-03-24 05:04:00+00:00,127.0,3.05,131.0,3.44,12.17,47.59359,-54.27349
2023-03-24 05:14:00+00:00,134.0,2.39,130.0,2.67,12.09,47.59359,-54.27349
2023-03-24 05:24:00+00:00,133.0,3.48,139.0,3.93,12.09,47.59359,-54.27349
2023-03-24 05:34:00+00:00,118.0,3.5,116.0,3.83,12.09,47.59359,-54.27349
2023-03-24 05:44:00+00:00,125.0,2.74,126.0,3.5,12.09,47.59359,-54.27349
2023-03-24 05:54:00+00:00,113.0,2.69,121.0,3.57,12.09,47.59359,-54.27349
2023-03-24 06:04:00+00:00,123.0,3.66,122.0,4.41,12.09,47.59359,-54.27349
2023-03-24 06:14:00+00:00,123.0,3.96,127.0,4.68,12.09,47.59359,-54.27349
2023-03-24 06:24:00+00:00,122.0,3.62,119.0,4.14,12.09,47.59359,-54.27349
2023-03-24 06:34:00+00:00,138.0,4.13,141.0,4.53,12.09,47.59359,-54.27349
2023-03-24 06:44:00+00:00,125.0,4.86,125.0,5.45,12.09,47.59359,-54.27349
2023-03-24 06:54:00+00:00,140.0,4.79,140.0,5.49,12.09,47.59359,-54.27349
2023-03-24 07:04:00+00:00,144.0,5.04,142.0,5.54,12.09,47.59359,-54.27349
2023-03-24 07:14:00+00:00,148.0,4.25,146.0,4.81,12.09,47.59359,-54.27349
2023-03-24 07:24:00+00:00,139.0,4.79,140.0,5.57,12.09,47.59359,-54.27349
2023-03-24 07:34:00+00:00,138.0,5.07,138.0,5.37,12.09,47.59359,-54.27349
2023-03-24 07:44:00+00:00,135.0,4.34,140.0,4.94,12.09,47.59359,-54.27349
2023-03-24 07:54:00+00:00,124.0,4.06,126.0,4.84,12.09,47.59359,-54.27349
2023-03-24 08:04:00+00:00,116.0,3.58,124.0,5.24,12.09,47.59359,-54.27349
2023-03-24 08:14:01+00:00,105.0,3.33,107.0,5.4,12.09,47.59359,-54.27349
2023-03-24 08:24:01+00:00,99.0,4.09,91.0,5.82,12.09,47.59359,-54.27349
2023-03-24 08:34:01+00:00,108.0,3.52,132.0,5.12,12.09,47.59359,-54.27349
2023-03-24 08:44:01+00:00,106.0,3.08,123.0,5.76,12.09,47.59359,-54.27349
2023-03-24 08:54:01+00:00,105.0,3.55,140.0,5.33,12.09,47.59359,-54.27349
2023-03-24 09:04:01+00:00,105.0,3.49,85.0,6.44,12.09,47.59359,-54.27349
2023-03-24 09:14:01+00:00,120.0,5.82,124.0,7.42,12.01,47.59359,-54.27349
2023-03-24 09:24:01+00:00,108.0,5.22,126.0,8.12,12.01,47.59359,-54.27349
2023-03-24 09:34:01+00:00,113.0,4.4,147.0,7.25,12.01,47.59359,-54.27349
2023-03-24 09:44:01+00:00,111.0,4.59,129.0,8.21,12.01,47.59359,-54.27349
2023-03-24 09:54:01+00:00,110.0,4.4,124.0,7.58,12.01,47.59359,-54.27349
2023-03-24 10:04:01+00:00,93.0,5.17,109.0,8.02,12.01,47.59359,-54.27349
2023-03-24 10:14:00+00:00,104.0,3.64,122.0,5.52,12.01,47.59359,-54.27349
2023-03-24 10:24:00+00:00,115.0,4.71,115.0,6.56,12.01,47.59359,-54.27349
2023-03-24 10:34:00+00:00,107.0,4.69,113.0,8.49,12.01,47.59359,-54.27349
2023-03-24 10:44:00+00:00,104.0,4.39,119.0,7.66,12.01,47.59359,-54.27349
2023-03-24 10:54:00+00:00,122.0,6.86,127.0,8.44,12.01,47.59359,-54.27349
2023-03-24 11:04:00+00:00,105.0,4.82,105.0,8.14,12.01,47.59359,-54.27349
2023-03-24 11:14:00+00:00,113.0,5.15,116.0,8.25,12.41,47.59359,-54.27349
2023-03-24 11:24:00+00:00,110.0,6.13,132.0,11.04,12.41,47.59359,-54.27349
2023-03-24 11:34:00+00:00,112.0,8.14,120.0,15.55,12.41,47.59359,-54.27349
2023-03-24 11:44:00+00:00,117.0,10.7,120.0,15.32,12.41,47.59359,-54.27349
2023-03-24 11:54:00+00:00,114.0,10.82,110.0,15.7,12.41,47.59359,-54.27349
2023-03-24 12:04:00+00:00,107.0,6.61,111.0,12.69,12.41,47.59359,-54.27349
2023-03-24 12:14:00+00:00,98.0,5.42,123.0,8.77,13.6,47.59359,-54.27349
2023-03-24 12:24:00+00:00,113.0,9.94,115.0,15.54,13.6,47.59359,-54.27349
2023-03-24 12:34:00+00:00,115.0,9.23,119.0,16.14,13.6,47.59359,-54.27349
2023-03-24 12:44:00+00:00,111.0,8.83,117.0,14.67,13.6,47.59359,-54.27349
2023-03-24 12:54:00+00:00,112.0,7.96,122.0,12.51,13.6,47.59359,-54.27349
2023-03-24 13:04:00+00:00,100.0,6.49,91.0,11.32,13.6,47.59359,-54.27349
2023-03-24 13:14:00+00:00,98.0,8.53,99.0,12.96,13.68,47.59359,-54.27349
2023-03-24 13:24:00+00:00,95.0,7.31,90.0,12.92,13.68,47.59359,-54.27349
2023-03-24 13:34:00+00:00,94.0,5.83,83.0,10.5,13.68,47.59359,-54.27349
2023-03-24 13:44:00+00:00,90.0,6.5,113.0,12.28,13.68,47.59359,-54.27349
2023-03-24 13:54:00+00:00,95.0,9.36,109.0,13.04,13.68,47.59359,-54.27349
2023-03-24 14:04:00+00:00,88.0,7.64,91.0,11.96,13.68,47.59359,-54.27349
2023-03-24 14:14:01+00:00,90.0,6.83,77.0,12.83,13.6,47.59359,-54.27349
2023-03-24 14:24:01+00:00,93.0,8.01,92.0,11.73,13.6,47.59359,-54.27349
2023-03-24 14:34:01+00:00,84.0,7.83,80.0,12.61,13.6,47.59359,-54.27349
2023-03-24 14:44:01+00:00,91.0,10.13,105.0,15.22,13.6,47.59359,-54.27349
2023-03-24 14:54:01+00:00,95.0,6.95,100.0,11.53,13.6,47.59359,-54.27349
2023-03-24 15:04:01+00:00,98.0,7.3,112.0,13.01,13.6,47.59359,-54.27349
2023-03-24 15:14:00+00:00,100.0,7.92,117.0,12.92,13.6,47.59359,-54.27349
2023-03-24 15:24:00+00:00,96.0,8.06,122.0,12.97,13.6,47.59359,-54.27349
2023-03-24 15:34:00+00:00,100.0,8.94,95.0,12.5,13.6,47.59359,-54.27349
2023-03-24 15:44:00+00:00,85.0,8.5,89.0,13.34,13.6,47.59359,-54.27349
2023-03-24 15:54:00+00:00,84.0,6.95,101.0,10.96,13.6,47.59359,-54.27349
2023-03-24 16:04:00+00:00,90.0,7.77,105.0,11.13,13.6,47.59359,-54.27349
2023-03-24 16:14:00+00:00,91.0,6.57,114.0,11.6,13.6,47.59359,-54.27349
2023-03-24 16:24:00+00:00,84.0,8.35,92.0,12.57,13.6,47.59359,-54.27349
2023-03-24 16:34:00+00:00,84.0,9.16,73.0,16.16,13.6,47.59359,-54.27349
2023-03-24 16:44:00+00:00,76.0,8.88,74.0,13.46,13.6,47.59359,-54.27349
2023-03-24 16:54:00+00:00,74.0,10.48,75.0,15.75,13.6,47.59359,-54.27349
2023-03-24 17:04:00+00:00,78.0,9.47,79.0,13.95,13.6,47.59359,-54.27349
2023-03-24 17:14:00+00:00,80.0,9.25,91.0,16.14,13.53,47.59359,-54.27349
2023-03-24 17:24:00+00:00,79.0,8.17,70.0,13.03,13.53,47.59359,-54.27349
2023-03-24 17:34:00+00:00,81.0,10.91,81.0,15.28,13.53,47.59359,-54.27349
2023-03-24 17:44:00+00:00,78.0,9.98,81.0,12.86,13.53,47.59359,-54.27349
2023-03-24 17:54:00+00:00,75.0,12.18,70.0,17.16,13.53,47.59359,-54.27349
2023-03-24 18:04:00+00:00,77.0,9.54,94.0,14.57,13.53,47.59359,-54.27349
2023-03-24 18:14:00+00:00,76.0,9.92,63.0,13.91,13.37,47.59359,-54.27349
2023-03-24 18:24:00+00:00,74.0,11.02,67.0,14.64,13.37,47.59359,-54.27349
2023-03-24 18:34:00+00:00,80.0,8.8,80.0,13.07,13.37,47.59359,-54.27349
2023-03-24 18:44:00+00:00,73.0,10.5,74.0,12.99,13.37,47.59359,-54.27349
2023-03-24 18:54:00+00:00,73.0,11.72,70.0,17.07,13.37,47.59359,-54.27349
2023-03-24 19:04:00+00:00,70.0,12.73,67.0,14.49,13.37,47.59359,-54.27349
2023-03-24 19:14:00+00:00,67.0,12.39,64.0,16.95,13.21,47.59359,-54.27349
2023-03-24 19:24:00+00:00,69.0,13.21,73.0,16.6,13.21,47.59359,-54.27349
2023-03-24 19:34:00+00:00,70.0,12.72,68.0,14.24,13.21,47.59359,-54.27349
2023-03-24 19:44:00+00:00,67.0,12.62,71.0,14.39,13.21,47.59359,-54.27349
2023-03-24 19:54:00+00:00,67.0,13.23,70.0,17.39,13.21,47.59359,-54.27349
2023-03-24 20:04:00+00:00,65.0,13.03,70.0,14.92,13.21,47.59359,-54.27349
2023-03-24 20:14:00+00:00,68.0,13.74,74.0,17.07,12.97,47.59359,-54.27349
2023-03-24 20:24:00+00:00,62.0,13.1,64.0,15.11,12.97,47.59359,-54.27349
2023-03-24 20:34:00+00:00,64.0,13.56,69.0,19.77,12.97,47.59359,-54.27349
2023-03-24 20:44:00+00:00,61.0,14.47,59.0,17.82,12.97,47.59359,-54.27349
2023-03-24 20:54:00+00:00,63.0,14.09,66.0,17.78,12.97,47.59359,-54.27349
2023-03-24 21:04:00+00:00,59.0,14.1,63.0,18.04,12.97,47.59359,-54.27349
2023-03-24 21:14:00+00:00,57.0,17.35,62.0,23.25,12.49,47.59359,-54.27349
2023-03-24 21:24:00+00:00,58.0,14.74,65.0,17.86,12.49,47.59359,-54.27349
2023-03-24 21:34:00+00:00,59.0,14.75,66.0,19.79,12.49,47.59359,-54.27349
2023-03-24 21:44:00+00:00,57.0,19.95,60.0,24.8,12.49,47.59359,-54.27349
2023-03-24 21:54:00+00:00,55.0,18.45,60.0,24.06,12.49,47.59359,-54.27349
2023-03-24 22:04:00+00:00,55.0,15.21,54.0,18.81,12.49,47.59359,-54.27349
2023-03-24 22:14:00+00:00,55.0,16.11,62.0,22.39,12.33,47.59359,-54.27349
2023-03-24 22:24:00+00:00,54.0,18.09,57.0,23.31,12.33,47.59359,-54.27349
2023-03-24 22:34:00+00:00,57.0,16.88,58.0,21.36,12.33,47.59359,-54.27349
2023-03-24 22:44:00+00:00,52.0,16.55,52.0,21.59,12.33,47.59359,-54.27349
2023-03-24 22:54:00+00:00,53.0,20.51,54.0,24.99,12.33,47.59359,-54.27349
2023-03-24 23:04:00+00:00,49.0,19.43,49.0,26.04,12.33,47.59359,-54.27349
2023-03-24 23:14:01+00:00,55.0,19.61,51.0,24.0,12.25,47.59359,-54.27349
2023-03-24 23:24:01+00:00,52.0,16.99,57.0,23.98,12.25,47.59359,-54.27349
2023-03-24 23:34:01+00:00,52.0,21.02,50.0,25.5,12.25,47.59359,-54.27349
2023-03-24 23:44:01+00:00,52.0,18.08,58.0,24.52,12.25,47.59359,-54.27349
2023-03-24 23:54:01+00:00,52.0,20.68,54.0,25.82,12.25,47.59359,-54.27349
